Location: Lombard
(41.8800°N, 88.0080°W)
Time: 01:29:48
(UTC-05:00)

Gurwin Techsat 1B - Pass Details

Date: 25 May 2022
Orbit: 811 x 814 km, 98.8° (Epoch: 27 June)

Event Time Altitude Azimuth Distance (km) Brightness Sun altitude
Rises 02:54:43 0° 20° (NNE) 3,343 13.3 -20.8°
Reaches altitude 10° 02:57:10 10° 26° (NNE) 2,407 12.3 -20.5°
Maximum altitude 03:02:16 46° 99° (E) 1,088 9.4 -20.0°
Enters shadow 03:05:27 21° 162° (SSE) 1,728 10.0 -19.7°
